Simultaneous Nadir Overpasses (SNOs) Predictions

Prediction of SNOs between AQUA and NOAA-19 Satellite Orbit:

Table of predicted SNOs for the next 14.0 days since TLE Epoch: 11/2/2024
Index Date (AQUA) Time (AQUA) Lat,Lon (AQUA) SZA (AQUA ) Date (NOAA-19) Time (NOAA-19) Lat,Lon (NOAA-19) SZA (NOAA-19 ) Distance(km) Time Diff (sec)
1 11/03/2024 11:45:46 -75.63,-175.83 89.11 11/03/2024 11:45:31 -75.61,-175.91 89.13 2.99 15
2 11/03/2024 12:35:14 75.99, -9.26 91.24 11/03/2024 12:36:22 76.01, -7.29 91.31 53.21 68
3 11/05/2024 14:44:35 -75.60, 139.59 88.49 11/05/2024 14:44:08 -75.61, 139.49 88.48 3.26 27
4 11/05/2024 15:33:57 75.67, -52.95 91.59 11/05/2024 15:35:07 75.67, -53.07 91.60 3.22 70
5 11/07/2024 17:43:22 -75.61, 94.91 87.85 11/07/2024 17:42:45 -75.60, 94.83 87.87 2.77 37
6 11/07/2024 18:32:44 75.69, -97.65 92.23 11/07/2024 18:33:44 75.67, -97.66 92.23 1.61 60
7 11/09/2024 20:42:06 -75.61, 50.26 87.25 11/09/2024 20:41:21 -75.60, 50.25 87.26 1.26 45
8 11/09/2024 21:31:28 75.70,-142.32 92.85 11/09/2024 21:32:20 75.70,-142.18 92.86 3.69 52
9 11/11/2024 23:40:47 -75.61, 5.65 86.67 11/11/2024 23:39:57 -75.59, 5.61 86.69 2.61 50
10 11/12/2024 00:30:08 75.65, 173.20 93.39 11/12/2024 00:30:57 75.66, 173.07 93.40 3.58 49
11 11/14/2024 02:39:25 -75.60, -38.93 86.12 11/14/2024 02:38:32 -75.60, -38.96 86.12 0.70 53



Historial Predications of SNOs between AQUA and NOAA-19
